La Laguna Airport


Codes: MHNJ/GJA
Name: La Laguna Airport
City: Guanaja
Country: Honduras
Elevation: 49 ft.

Photos at La Laguna Airport


   Photos courtesy of SpottingLog. You can add your own sightings and photos by signing up for a free trial today.



No photos found.

Weather at La Laguna Airport


Time (UTC)DescriptionTempratureWindCloud coverageVisibilityPressureHumidity
18-Apr-2024 00:00Clear Sky27°C18 mph, NE1%10000m1012hPa81%
18-Apr-2024 03:00Clear Sky27°C16 mph, E1%10000m1012hPa81%
18-Apr-2024 06:00Light Rain26°C16 mph, E2%10000m1012hPa79%
18-Apr-2024 09:00Light Rain26°C13 mph, E35%10000m1011hPa79%
18-Apr-2024 12:00Light Rain26°C13 mph, SE40%10000m1013hPa78%
18-Apr-2024 15:00Clear Sky26°C11 mph, SE0%10000m1014hPa76%
18-Apr-2024 18:00Clear Sky26°C11 mph, E0%10000m1013hPa74%
18-Apr-2024 21:00Clear Sky27°C16 mph, NE0%10000m1011hPa70%
19-Apr-2024 00:00Clear Sky27°C16 mph, NE0%10000m1012hPa77%
19-Apr-2024 03:00Clear Sky27°C16 mph, E0%10000m1013hPa82%
19-Apr-2024 06:00Light Rain27°C20 mph, E0%10000m1012hPa81%
19-Apr-2024 09:00Clear Sky26°C18 mph, SE2%10000m1011hPa80%
19-Apr-2024 12:00Clear Sky26°C18 mph, SE2%10000m1012hPa78%
19-Apr-2024 15:00Clear Sky27°C13 mph, E2%10000m1014hPa76%
19-Apr-2024 18:00Clear Sky27°C13 mph, E2%10000m1013hPa75%
19-Apr-2024 21:00Clear Sky27°C18 mph, NE6%10000m1011hPa81%
20-Apr-2024 00:00Few Clouds27°C20 mph, E14%10000m1012hPa85%
20-Apr-2024 03:00Clear Sky27°C20 mph, E1%10000m1013hPa86%
20-Apr-2024 06:00Light Rain27°C18 mph, E2%10000m1013hPa85%
20-Apr-2024 09:00Clear Sky27°C20 mph, E0%10000m1012hPa81%
20-Apr-2024 12:00Scattered Clouds27°C18 mph, E34%10000m1013hPa81%
20-Apr-2024 15:00Few Clouds27°C18 mph, E11%10000m1014hPa84%
20-Apr-2024 18:00Clear Sky27°C20 mph, E9%10000m1013hPa83%
20-Apr-2024 21:00Clear Sky27°C22 mph, NE2%10000m1010hPa84%
21-Apr-2024 00:00Clear Sky27°C25 mph, E7%10000m1011hPa84%
21-Apr-2024 03:00Clear Sky27°C25 mph, E2%10000m1013hPa85%
21-Apr-2024 06:00Clear Sky27°C22 mph, E2%10000m1012hPa85%
21-Apr-2024 09:00Clear Sky27°C22 mph, E4%10000m1010hPa81%
21-Apr-2024 12:00Clear Sky27°C22 mph, E0%10000m1012hPa80%
21-Apr-2024 15:00Clear Sky27°C20 mph, E0%10000m1013hPa79%
21-Apr-2024 18:00Clear Sky27°C20 mph, E5%10000m1011hPa81%
21-Apr-2024 21:00Broken Clouds27°C22 mph, E76%10000m1009hPa85%
22-Apr-2024 00:00Broken Clouds27°C22 mph, E80%10000m1009hPa86%
22-Apr-2024 03:00Clear Sky27°C25 mph, E9%10000m1011hPa83%
22-Apr-2024 06:00Clear Sky27°C25 mph, E5%10000m1011hPa84%
22-Apr-2024 09:00Scattered Clouds26°C22 mph, E38%10000m1010hPa82%
22-Apr-2024 12:00Scattered Clouds26°C22 mph, E25%10000m1011hPa80%
22-Apr-2024 15:00Broken Clouds27°C18 mph, E76%10000m1012hPa80%
22-Apr-2024 18:00Broken Clouds27°C16 mph, E62%10000m1011hPa77%
22-Apr-2024 21:00Broken Clouds27°C16 mph, NE72%10000m1010hPa78%